| time (UTC) | temp F | wind direction | speed MPH | gust MPH | rain 1hr in | rain 24hr in | rain mn in | humidity % | barometer mb |
| 20260505212534 | 59 | 276 | 3.0 | 9.0 | 0.00 | 0.22 | 0.00 | 78 | 1015.0 |
| 20260505211832 | 59 | 267 | 4.0 | 9.0 | 0.00 | 0.22 | 0.00 | 78 | 1015.1 |
| 20260505211132 | 59 | 180 | 3.0 | 8.0 | 0.00 | 0.22 | 0.00 | 78 | 1015.0 |
| 20260505210433 | 60 | 309 | 2.0 | 4.0 | 0.00 | 0.22 | 0.00 | 78 | 1015.1 |
| 20260505205732 | 59 | 292 | 2.0 | 8.0 | 0.00 | 0.22 | 0.00 | 78 | 1015.1 |
| 20260505204842 | 59 | 299 | 3.0 | 6.0 | 0.00 | 0.22 | 0.00 | 78 | 1015.0 |
| 20260505204141 | 60 | 225 | 2.0 | 6.0 | 0.00 | 0.22 | 0.00 | 77 | 1015.1 |
| 20260505203441 | 61 | 219 | 3.0 | 7.0 | 0.00 | 0.22 | 0.00 | 77 | 1015.1 |
| 20260505202741 | 60 | 304 | 2.0 | 6.0 | 0.00 | 0.22 | 0.00 | 79 | 1015.1 |
| 20260505202041 | 62 | 222 | 3.0 | 5.0 | 0.00 | 0.22 | 0.00 | 76 | 1015.0 |
| 20260505201150 | 60 | 211 | 4.0 | 8.0 | 0.00 | 0.22 | 0.00 | 77 | 1015.1 |
| 20260505200449 | 60 | 250 | 2.0 | 5.0 | 0.00 | 0.22 | 0.00 | 78 | 1015.1 |
| 20260505195750 | 59 | 225 | 3.0 | 5.0 | 0.00 | 0.22 | 0.00 | 78 | 1015.2 |
| 20260505195049 | 59 | 231 | 3.0 | 9.0 | 0.00 | 0.22 | 0.00 | 78 | 1015.2 |
| 20260505194349 | 58 | 273 | 3.0 | 9.0 | 0.00 | 0.22 | 0.00 | 80 | 1015.2 |
| 20260505193649 | 58 | 228 | 3.0 | 8.0 | 0.00 | 0.22 | 0.00 | 79 | 1015.2 |
| 20260505192758 | 57 | 215 | 4.0 | 5.0 | 0.00 | 0.22 | 0.00 | 80 | 1015.3 |
| 20260505192058 | 56 | 236 | 3.0 | 8.0 | 0.00 | 0.22 | 0.00 | 83 | 1015.3 |
| 20260505191358 | 54 | 250 | 2.0 | 8.0 | 0.00 | 0.22 | 0.00 | 84 | 1015.3 |
| 20260505190658 | 54 | 205 | 2.0 | 5.0 | 0.00 | 0.22 | 0.00 | 84 | 1015.4 |
| 20260505185958 | 54 | 225 | 2.0 | 5.0 | 0.00 | 0.22 | 0.00 | 84 | 1015.4 |
| 20260505184914 | 54 | 253 | 2.0 | 3.0 | 0.00 | 0.22 | 0.00 | 85 | 1015.2 |
| 20260505184214 | 54 | 186 | 1.0 | 3.0 | 0.00 | 0.22 | 0.00 | 85 | 1015.3 |
| 20260505183514 | 54 | 169 | 1.0 | 3.0 | 0.00 | 0.22 | 0.00 | 85 | 1015.2 |
| 20260505182814 | 55 | 209 | 2.0 | 3.0 | 0.00 | 0.22 | 0.00 | 85 | 1015.2 |
| 20260505182114 | 54 | 259 | 2.0 | 3.0 | 0.00 | 0.22 | 0.00 | 84 | 1015.1 |
| 20260505181414 | 54 | 240 | 1.0 | 3.0 | 0.00 | 0.22 | 0.00 | 85 | 1015.0 |
| 20260505180714 | 54 | 259 | 1.0 | 4.0 | 0.00 | 0.22 | 0.00 | 84 | 1015.0 |
| 20260505175823 | 54 | 304 | 1.0 | 4.0 | 0.00 | 0.22 | 0.00 | 84 | 1014.9 |
| 20260505175122 | 54 | 228 | 2.0 | 3.0 | 0.00 | 0.22 | 0.00 | 85 | 1014.8 |
| 20260505174423 | 54 | 180 | 0.0 | 2.0 | 0.00 | 0.22 | 0.00 | 84 | 1014.7 |
| 20260505173531 | 55 | 290 | 2.0 | 3.0 | 0.00 | 0.22 | 0.00 | 84 | 1014.7 |
| 20260505172831 | 55 | 270 | 2.0 | 4.0 | 0.00 | 0.22 | 0.00 | 83 | 1014.6 |
| 20260505172131 | 54 | 264 | 2.0 | 5.0 | 0.00 | 0.22 | 0.00 | 84 | 1014.6 |
| 20260505171431 | 54 | 273 | 1.0 | 5.0 | 0.00 | 0.22 | 0.00 | 85 | 1014.6 |
| 20260505170731 | 54 | 273 | 2.0 | 5.0 | 0.00 | 0.22 | 0.00 | 84 | 1014.7 |
| 20260505170031 | 53 | 332 | 1.0 | 6.0 | 0.00 | 0.22 | 0.00 | 84 | 1014.6 |
| 20260505165331 | 54 | 202 | 1.0 | 3.0 | 0.00 | 0.22 | 0.00 | 85 | 1014.6 |
| 20260505164440 | 53 | 287 | 1.0 | 4.0 | 0.00 | 0.22 | 0.00 | 85 | 1014.6 |
| 20260505163740 | 53 | 289 | 1.0 | 4.0 | 0.00 | 0.22 | 0.00 | 86 | 1014.6 |
| 20260505163041 | 53 | 307 | 1.0 | 3.0 | 0.00 | 0.22 | 0.00 | 86 | 1014.5 |
| 20260505162148 | 53 | 315 | 0.0 | 3.0 | 0.00 | 0.22 | 0.00 | 86 | 1014.4 |
| 20260505161448 | 52 | 315 | 2.0 | 4.0 | 0.00 | 0.22 | 0.00 | 86 | 1014.3 |
| 20260505160748 | 52 | 315 | 1.0 | 3.0 | 0.00 | 0.22 | 0.00 | 87 | 1014.3 |
| 20260505153248 | 51 | 304 | 1.0 | 3.0 | 0.00 | 0.22 | 0.00 | 87 | 1014.2 |
| 20260505152548 | 51 | 323 | 1.0 | 3.0 | 0.00 | 0.22 | 0.00 | 87 | 1014.2 |
| 20260505151700 | 50 | 338 | 2.0 | 4.0 | 0.00 | 0.22 | 0.00 | 87 | 1014.1 |
| 20260505150957 | 50 | 332 | 1.0 | 3.0 | 0.00 | 0.22 | 0.00 | 87 | 1014.1 |
| 20260505150106 | 50 | 222 | 1.0 | 5.0 | 0.00 | 0.22 | 0.00 | 88 | 1013.9 |
| 20260505140315 | 50 | 325 | 1.0 | 5.0 | 0.00 | 0.22 | 0.00 | 88 | 1013.7 |
| 20260505124932 | 50 | 262 | 2.0 | 3.0 | 0.00 | 0.22 | 0.22 | 88 | 1013.2 |
| 20260505124039 | 50 | 308 | 1.0 | 3.0 | 0.00 | 0.22 | 0.22 | 88 | 1013.3 |
| 20260505123339 | 50 | 322 | 1.0 | 4.0 | 0.00 | 0.22 | 0.22 | 88 | 1013.2 |
| 20260505122639 | 50 | 310 | 0.0 | 2.0 | 0.00 | 0.22 | 0.22 | 88 | 1013.2 |
| 20260505121939 | 50 | 265 | 0.0 | 3.0 | 0.00 | 0.22 | 0.22 | 88 | 1013.2 |
| 20260505121240 | 50 | 315 | 2.0 | 3.0 | 0.00 | 0.22 | 0.22 | 88 | 1013.3 |
| 20260505120539 | 50 | 292 | 1.0 | 2.0 | 0.00 | 0.22 | 0.22 | 88 | 1013.2 |
| 20260505115839 | 50 | 258 | 2.0 | 4.0 | 0.00 | 0.22 | 0.22 | 87 | 1013.2 |
| 20260505115139 | 50 | 220 | 2.0 | 4.0 | 0.00 | 0.22 | 0.22 | 88 | 1013.3 |
| 20260505114248 | 50 | 255 | 2.0 | 4.0 | 0.00 | 0.22 | 0.22 | 88 | 1013.3 |
| 20260505113548 | 50 | 242 | 1.0 | 3.0 | 0.00 | 0.22 | 0.22 | 88 | 1013.2 |
| 20260505112848 | 50 | 295 | 1.0 | 4.0 | 0.00 | 0.22 | 0.22 | 88 | 1013.3 |
| 20260505112148 | 50 | 315 | 1.0 | 6.0 | 0.00 | 0.22 | 0.22 | 87 | 1013.4 |
| 20260505111448 | 50 | 245 | 3.0 | 6.0 | 0.00 | 0.22 | 0.22 | 88 | 1013.4 |
| 20260505110556 | 50 | 268 | 1.0 | 3.0 | 0.00 | 0.22 | 0.22 | 88 | 1013.5 |
| 20260505102206 | 50 | 325 | 1.0 | 3.0 | 0.01 | 0.22 | 0.22 | 87 | 1013.4 |
| 20260505101506 | 49 | 217 | 2.0 | 3.0 | 0.01 | 0.22 | 0.22 | 87 | 1013.3 |
| 20260505100806 | 49 | 245 | 1.0 | 3.0 | 0.01 | 0.22 | 0.22 | 87 | 1013.5 |
| 20260505100106 | 49 | 236 | 1.0 | 3.0 | 0.01 | 0.22 | 0.22 | 87 | 1013.4 |
| 20260505095406 | 49 | 295 | 1.0 | 4.0 | 0.01 | 0.22 | 0.22 | 87 | 1013.2 |
| 20260505094705 | 49 | 295 | 2.0 | 4.0 | 0.02 | 0.22 | 0.22 | 87 | 1013.1 |
| 20260505093814 | 49 | 295 | 1.0 | 6.0 | 0.02 | 0.22 | 0.22 | 87 | 1013.0 |
| 20260505093114 | 49 | 238 | 2.0 | 6.0 | 0.01 | 0.21 | 0.21 | 87 | 1012.9 |
| 20260505092414 | 49 | 250 | 3.0 | 3.0 | 0.01 | 0.21 | 0.21 | 87 | 1013.2 |
| 20260505091523 | 49 | 265 | 2.0 | 6.0 | 0.01 | 0.21 | 0.21 | 87 | 1013.6 |
| 20260505090826 | 49 | 325 | 2.0 | 3.0 | 0.01 | 0.21 | 0.21 | 87 | 1013.7 |
| 20260505090123 | 49 | 332 | 1.0 | 3.0 | 0.01 | 0.21 | 0.21 | 87 | 1013.7 |
| 20260505085423 | 49 | 320 | 2.0 | 3.0 | 0.01 | 0.21 | 0.21 | 87 | 1013.6 |
| 20260505084723 | 49 | 315 | 2.0 | 3.0 | 0.00 | 0.20 | 0.20 | 87 | 1013.7 |
| 20260505084023 | 49 | 315 | 2.0 | 3.0 | 0.00 | 0.20 | 0.20 | 87 | 1013.8 |
| 20260505083323 | 49 | 318 | 1.0 | 3.0 | 0.00 | 0.20 | 0.20 | 87 | 1013.7 |
| 20260505082430 | 49 | 110 | 1.0 | 6.0 | 0.00 | 0.20 | 0.20 | 87 | 1013.7 |
| 20260505081730 | 49 | 278 | 2.0 | 6.0 | 0.00 | 0.20 | 0.20 | 87 | 1013.7 |
| 20260505081030 | 49 | 288 | 3.0 | 6.0 | 0.00 | 0.20 | 0.20 | 87 | 1013.9 |
| 20260505080330 | 49 | 282 | 2.0 | 3.0 | 0.01 | 0.20 | 0.20 | 87 | 1013.9 |
| 20260505075439 | 49 | 322 | 2.0 | 4.0 | 0.01 | 0.20 | 0.20 | 87 | 1014.0 |
| 20260505074739 | 49 | 315 | 2.0 | 3.0 | 0.01 | 0.20 | 0.20 | 87 | 1014.0 |
| 20260505073847 | 49 | 302 | 2.0 | 5.0 | 0.02 | 0.20 | 0.20 | 87 | 1013.7 |
| 20260505073148 | 49 | 260 | 3.0 | 5.0 | 0.03 | 0.20 | 0.20 | 87 | 1013.8 |
| 20260505072447 | 49 | 295 | 2.0 | 4.0 | 0.03 | 0.20 | 0.20 | 88 | 1013.8 |
| 20260505071747 | 49 | 285 | 2.0 | 4.0 | 0.03 | 0.20 | 0.20 | 88 | 1013.7 |
| 20260505070856 | 49 | 312 | 2.0 | 6.0 | 0.02 | 0.19 | 0.19 | 87 | 1013.9 |
| 20260505070156 | 49 | 270 | 3.0 | 6.0 | 0.02 | 0.19 | 0.19 | 88 | 1013.7 |
| 20260505065456 | 49 | 298 | 2.0 | 6.0 | 0.02 | 0.19 | 0.19 | 87 | 1014.2 |
| 20260505064756 | 49 | 202 | 2.0 | 3.0 | 0.02 | 0.19 | 0.19 | 87 | 1014.2 |
| 20260505064056 | 49 | 215 | 2.0 | 3.0 | 0.02 | 0.19 | 0.19 | 87 | 1014.4 |
| 20260505063205 | 50 | 342 | 0.0 | 3.0 | 0.01 | 0.18 | 0.18 | 87 | 1014.5 |
| 20260505062505 | 50 | 321 | 1.0 | 3.0 | 0.00 | 0.17 | 0.17 | 87 | 1014.8 |
| 20260505061805 | 50 | 345 | 1.0 | 3.0 | 0.00 | 0.17 | 0.17 | 87 | 1014.6 |
| 20260505061105 | 50 | 2 | 1.0 | 3.0 | 0.00 | 0.17 | 0.17 | 87 | 1014.2 |
| 20260505060406 | 50 | 239 | 1.0 | 3.0 | 0.00 | 0.17 | 0.17 | 87 | 1014.0 |
| 20260505055704 | 50 | 328 | 1.0 | 3.0 | 0.00 | 0.17 | 0.17 | 87 | 1014.1 |
| 20260505055005 | 50 | 248 | 2.0 | 5.0 | 0.00 | 0.17 | 0.17 | 87 | 1014.0 |
| 20260505054305 | 50 | 267 | 3.0 | 4.0 | 0.00 | 0.17 | 0.17 | 87 | 1014.0 |
| 20260505053604 | 50 | 265 | 2.0 | 4.0 | 0.00 | 0.17 | 0.17 | 87 | 1014.2 |
| 20260505052714 | 50 | 232 | 2.0 | 3.0 | 0.00 | 0.17 | 0.17 | 87 | 1014.2 |
| 20260505051822 | 49 | 228 | 2.0 | 3.0 | 0.00 | 0.17 | 0.17 | 87 | 1014.6 |
| 20260505051122 | 50 | 225 | 2.0 | 2.0 | 0.00 | 0.00 | 0.00 | 87 | 1014.7 |
| 20260505050422 | 49 | 239 | 0.0 | 1.0 | 0.00 | 0.17 | 0.17 | 87 | 1014.8 |
| 20260505041522 | 50 | 242 | 3.0 | 7.0 | 0.00 | 0.17 | 0.17 | 87 | 1014.4 |
| 20260505040630 | 50 | 253 | 2.0 | 6.0 | 0.00 | 0.17 | 0.17 | 87 | 1014.5 |
| 20260505035930 | 50 | 300 | 1.0 | 3.0 | 0.00 | 0.17 | 0.17 | 87 | 1014.4 |
| 20260505035038 | 50 | 292 | 2.0 | 4.0 | 0.00 | 0.17 | 0.17 | 87 | 1014.0 |
| 20260505034338 | 50 | 264 | 2.0 | 3.0 | 0.00 | 0.17 | 0.17 | 87 | 1013.9 |
| 20260505033638 | 50 | 259 | 2.0 | 9.0 | 0.00 | 0.17 | 0.17 | 87 | 1013.7 |
| 20260505032938 | 50 | 267 | 3.0 | 9.0 | 0.00 | 0.17 | 0.17 | 87 | 1013.5 |
| 20260505032238 | 50 | 253 | 3.0 | 6.0 | 0.01 | 0.17 | 0.17 | 87 | 1013.0 |
| 20260505031538 | 50 | 228 | 3.0 | 6.0 | 0.01 | 0.17 | 0.17 | 87 | 1013.1 |
| 20260505030647 | 50 | 248 | 2.0 | 5.0 | 0.02 | 0.17 | 0.17 | 87 | 1013.5 |
| 20260505025947 | 50 | 225 | 2.0 | 5.0 | 0.03 | 0.17 | 0.17 | 87 | 1013.5 |
| 20260505025247 | 50 | 257 | 3.0 | 6.0 | 0.03 | 0.17 | 0.17 | 87 | 1013.8 |
| 20260505024547 | 50 | 248 | 3.0 | 6.0 | 0.03 | 0.17 | 0.17 | 87 | 1014.1 |
| 20260505023847 | 50 | 236 | 2.0 | 4.0 | 0.03 | 0.17 | 0.17 | 87 | 1013.9 |
| 20260505023147 | 50 | 222 | 2.0 | 3.0 | 0.04 | 0.17 | 0.17 | 87 | 1013.9 |
| 20260505022256 | 50 | 200 | 2.0 | 4.0 | 0.04 | 0.16 | 0.16 | 87 | 1014.1 |
| 20260505021556 | 50 | 270 | 2.0 | 4.0 | 0.04 | 0.16 | 0.16 | 87 | 1014.3 |
| 20260505020856 | 50 | 254 | 1.0 | 3.0 | 0.03 | 0.15 | 0.15 | 87 | 1014.3 |
| 20260505020156 | 50 | 225 | 2.0 | 3.0 | 0.02 | 0.14 | 0.14 | 87 | 1014.2 |
| 20260505015456 | 50 | 236 | 1.0 | 3.0 | 0.02 | 0.14 | 0.14 | 87 | 1014.3 |
| 20260505014756 | 50 | 217 | 1.0 | 2.0 | 0.03 | 0.14 | 0.14 | 87 | 1014.2 |
| 20260505013904 | 50 | 222 | 1.0 | 4.0 | 0.03 | 0.14 | 0.14 | 87 | 1014.2 |
| 20260505013013 | 50 | 228 | 2.0 | 4.0 | 0.02 | 0.13 | 0.13 | 87 | 1014.3 |
| 20260505012313 | 50 | 228 | 1.0 | 2.0 | 0.03 | 0.13 | 0.13 | 87 | 1014.5 |
| 20260505011613 | 50 | 231 | 1.0 | 3.0 | 0.02 | 0.12 | 0.12 | 87 | 1014.4 |
| 20260505010914 | 50 | 267 | 2.0 | 6.0 | 0.03 | 0.12 | 0.12 | 87 | 1014.4 |
| 20260505010213 | 50 | 244 | 2.0 | 6.0 | 0.04 | 0.12 | 0.12 | 87 | 1014.4 |
| 20260505005513 | 50 | 214 | 2.0 | 4.0 | 0.04 | 0.12 | 0.12 | 87 | 1014.4 |
| 20260505004813 | 50 | 248 | 2.0 | 4.0 | 0.03 | 0.10 | 0.10 | 87 | 1014.4 |
| 20260505003922 | 50 | 278 | 2.0 | 4.0 | 0.04 | 0.10 | 0.10 | 87 | 1014.3 |
| 20260505003222 | 50 | 253 | 3.0 | 6.0 | 0.04 | 0.10 | 0.10 | 87 | 1014.1 |
| 20260505002522 | 50 | 236 | 2.0 | 6.0 | 0.04 | 0.09 | 0.09 | 87 | 1014.2 |
| 20260505001822 | 50 | 228 | 2.0 | 4.0 | 0.05 | 0.09 | 0.09 | 86 | 1014.2 |
| 20260505001122 | 50 | 238 | 2.0 | 4.0 | 0.04 | 0.08 | 0.08 | 87 | 1014.3 |
| 20260505000422 | 50 | 276 | 2.0 | 4.0 | 0.05 | 0.08 | 0.08 | 86 | 1014.3 |
| 20260504235722 | 50 | 276 | 2.0 | 5.0 | 0.05 | 0.07 | 0.07 | 86 | 1014.4 |
| 20260504234830 | 50 | 273 | 3.0 | 6.0 | 0.06 | 0.07 | 0.07 | 86 | 1014.3 |
| 20260504234130 | 50 | 315 | 2.0 | 4.0 | 0.05 | 0.06 | 0.06 | 86 | 1014.4 |
| 20260504233238 | 50 | 276 | 2.0 | 4.0 | 0.06 | 0.06 | 0.06 | 86 | 1014.3 |
| 20260504232539 | 50 | 278 | 3.0 | 4.0 | 0.05 | 0.05 | 0.05 | 86 | 1014.2 |
| 20260504231840 | 51 | 287 | 2.0 | 4.0 | 0.04 | 0.04 | 0.04 | 86 | 1014.3 |
| 20260504230947 | 51 | 270 | 3.0 | 6.0 | 0.03 | 0.03 | 0.03 | 86 | 1014.4 |
| 20260504230247 | 51 | 256 | 2.0 | 6.0 | 0.03 | 0.03 | 0.03 | 86 | 1014.5 |
| 20260504225547 | 51 | 270 | 3.0 | 6.0 | 0.02 | 0.02 | 0.02 | 86 | 1014.5 |
| 20260504224847 | 51 | 270 | 3.0 | 5.0 | 0.01 | 0.01 | 0.01 | 86 | 1014.4 |
| 20260504224148 | 51 | 292 | 3.0 | 8.0 | 0.01 | 0.01 | 0.01 | 85 | 1014.5 |
| 20260504223447 | 51 | 256 | 3.0 | 8.0 | 0.00 | 0.00 | 0.00 | 85 | 1014.4 |
| 20260504222556 | 52 | 268 | 3.0 | 5.0 | 0.00 | 0.00 | 0.00 | 84 | 1014.4 |
| 20260504221856 | 53 | 272 | 3.0 | 5.0 | 0.00 | 0.00 | 0.00 | 82 | 1014.3 |
| 20260504221156 | 53 | 248 | 2.0 | 4.0 | 0.00 | 0.00 | 0.00 | 82 | 1014.3 |
| 20260504220456 | 53 | 264 | 3.0 | 8.0 | 0.00 | 0.00 | 0.00 | 82 | 1014.4 |
| 20260504215759 | 53 | 275 | 2.0 | 6.0 | 0.00 | 0.00 | 0.00 | 81 | 1014.3 |
| 20260504215056 | 54 | 268 | 3.0 | 6.0 | 0.00 | 0.00 | 0.00 | 80 | 1014.5 |
| 20260504214205 | 55 | 250 | 2.0 | 7.0 | 0.00 | 0.00 | 0.00 | 80 | 1014.6 |
| 20260504213505 | 55 | 278 | 2.0 | 5.0 | 0.00 | 0.00 | 0.00 | 79 | 1014.6 |